This demonstration page uses our WeatherBlox Daily Observations layout. Learn more.

38.88101, -77.10428

Hourly Observations for January 28, 2020

Temp ( °F °C ) Dew Point ( °F °C ) Humidity (%) Winds ( mph kmh ) Pressure ( in mb ) Visibility ( mi km ) Precip ( " mm )
12:52 am 00:52 Cloudy 42 5.6 29 -1.7 60 60 NW 14 22 29.86 1011 10 16.0934 0 0
1:52 am 01:52 Cloudy 42 5.6 29 -1.7 60 60 NW 13 20 29.87 1012 10 16.0934 0 0
2:52 am 02:52 Cloudy 41 5 29 -1.7 62 62 NW 12 19 29.88 1012 10 16.0934 0 0
3:52 am 03:52 Cloudy 41 5 29 -1.7 62 62 NW 12 19 29.88 1012 10 16.0934 0 0
4:52 am 04:52 Cloudy 41 5 29 -1.7 62 62 NW 10 17 29.88 1012 10 16.0934 0 0
5:52 am 05:52 Cloudy 41 5 29 -1.7 62 62 NNW 12 19 29.9 1013 10 16.0934 0 0
6:52 am 06:52 Cloudy 41 5 29 -1.7 62 62 NW 12 19 29.92 1013 10 16.0934 0 0
7:52 am 07:52 Partly Cloudy 40 4.4 29 -1.7 65 65 NNW 9 15 29.94 1014 10 16.0934 0 0
8:52 am 08:52 Mostly Cloudy 42 5.6 30 -1.1 62 62 WNW 8 13 29.96 1015 10 16.0934 0 0
9:52 am 09:52 Mostly Cloudy 44 6.7 30 -1.1 58 58 NW 15 24 29.96 1015 10 16.0934 0 0
10:52 am 10:52 Mostly Cloudy 45 7.2 29 -1.7 54 54 NNW 17 28 29.96 1015 10 16.0934 0 0
11:52 am 11:52 Cloudy 46 7.8 28 -2.2 50 50 NNW 22 35 29.95 1014 10 16.0934 0 0
12:52 pm 12:52 Cloudy 46 7.8 28 -2.2 50 50 NNW 16 26 29.93 1014 10 16.0934 0 0
1:52 pm 13:52 Cloudy 47 8.3 28 -2.2 48 48 NNW 14 22 29.92 1013 10 16.0934 0 0
2:52 pm 14:52 Cloudy 46 7.8 28 -2.2 50 50 NW 15 24 29.93 1013 10 16.0934 0 0
3:52 pm 15:52 Cloudy 46 7.8 28 -2.2 50 50 NW 10 17 29.93 1013 10 16.0934 0 0
4:52 pm 16:52 Cloudy 46 7.8 26 -3.3 46 46 WNW 16 26 29.95 1014 10 16.0934 0 0
5:52 pm 17:52 Cloudy 45 7.2 26 -3.3 48 48 NW 15 24 29.97 1015 10 16.0934 0 0
6:52 pm 18:52 Cloudy 45 7.2 27 -2.8 49 49 NW 12 19 29.99 1016 10 16.0934 0 0
7:52 pm 19:52 Cloudy 44 6.7 27 -2.8 51 51 NW 10 17 30.01 1016 10 16.0934 0 0
8:52 pm 20:52 Cloudy 44 6.7 28 -2.2 53 53 NW 9 15 30.01 1016 10 16.0934 0 0
9:52 pm 21:52 Cloudy 43 6.1 29 -1.7 58 58 WNW 9 15 30.02 1017 10 16.0934 0 0
10:52 pm 22:52 Cloudy 43 6.1 29 -1.7 58 58 WNW 8 13 30.04 1017 10 16.0934 0 0
11:52 pm 23:52 Cloudy 42 5.6 30 -1.1 62 62 WNW 9 15 30.04 1017 10 16.0934 0 0

Powered by AerisWeather